Location: Vancouver
(49.2500°N, 123.1330°W)
Time: 19:01:51
(UTC-07:00)

ERS-2 - Visible Passes

Search period start: 20 April 2014 00:00
Search period end: 30 April 2014 00:00
Orbit: 534 x 540 km, 98.6° (Epoch: 19 April)

Date Brightness Start Highest point End Pass type
(mag) Time Alt. Az. Time Alt. Az. Time Alt. Az.
20 Apr 5.7 05:36:59 10° E 05:39:27 17° ENE 05:41:56 10° NNE visible
20 Apr 6.2 21:51:18 10° NW 21:52:04 11° NW 21:52:50 10° WNW visible
21 Apr 5.9 05:29:14 10° E 05:31:15 14° ENE 05:33:17 10° NNE visible
21 Apr 5.9 21:42:10 10° NNW 21:43:52 13° WNW 21:45:34 10° W visible
22 Apr 6.1 05:21:41 10° ENE 05:23:03 12° NE 05:24:24 10° NE visible
22 Apr 5.7 21:33:24 10° NNW 21:35:39 15° WNW 21:37:53 10° W visible
23 Apr 5.5 21:24:44 10° NNW 21:27:23 18° WNW 21:30:02 10° WSW visible
24 Apr 5.3 21:16:07 10° NNW 21:19:06 21° WNW 21:22:03 10° WSW visible
25 Apr 5.0 21:07:33 10° N 21:10:47 26° WNW 21:14:00 10° WSW visible
26 Apr 4.6 20:58:59 10° N 21:02:26 31° WNW 21:05:51 10° SW visible
